GLOBSTR M059
1 25944U 99058B   03050.19471173 -.00000086  00000-0  10000-3 0  3405
2 25944  52.0043 122.6647 0002094  71.5805 288.5218 12.62265893154131
GLOBSTR M056
1 25945U 99058C   03049.56305875 -.00000086  00000-0  10000-3 0  7156
2 25945  51.9963  79.6856 0002470 135.8763 224.2301 12.62264746154797
GLOBSTR M031
1 25946U 99058D   03049.57612528 -.00000111  00000-0 -40611-4 0  3556
2 25946  52.0031  79.9552 0001897 170.8135 189.2767 12.62264503154816
GLOBSTR M039
1 25961U 99062A   03049.91273224 -.00000086  00000-0  10000-3 0  6430
2 25961  51.9944 258.5481 0001293  79.0872 281.0146 12.62266579150473
GLOBSTR M034
1 25962U 99062B   03050.16181512  .00005922  00000-0  33604-1 0  3622
2 25962  52.0004 303.3792 0000737 355.5434   4.5026 12.62270286149726
GLOBSTR M029
1 25963U 99062C   03049.92098285 -.00000086  00000-0  10000-3 0  6660
2 25963  51.9948  33.7571 0003249 170.6038 189.4890 12.62262121160193
GLOBSTR M061
1 25964U 99062D   03049.80547228 -.00000086  00000-0  10000-3 0  3649
2 25964  52.0001 304.0657 0000619   2.8682 357.2187 12.62260383149687
GLOBSTR M063
1 26081U 00008A   03049.54985496 -.00000086  00000-0  10000-3 0  4490
2 26081  51.9993  80.0064 0001038 130.7929 229.3029 12.62262391148178
GLOBSTR M062
1 26082U 00008B   03049.90129258 -.00000104  00000-0  00000-0 0  3099
2 26082  52.0126 214.3946 0002048 117.2434 242.8644 12.62261320139920
GLOBSTR M060
1 26083U 00008C   03050.18144091 -.00000086  00000-0  10000-3 0  3907
2 26083  52.0056 123.6856 0002156 155.4165 204.6776 12.62264576147466
GLOBSTR M064
1 26084U 00008D   03049.57962652 -.00000149  00000-0  00000-0 0  5166
2 26084  52.0373  83.7987 0012963 102.7289 257.5087 13.92925044154052
MACSAT 2 M 2
1 20608U 90043B   03049.96484482  .00001567  00000-0  23644-3 0   535
2 20608  89.8514 143.6663 0096906 146.9259 213.8065 14.70704327683612
TUBSAT A 
1 21577U 91050D   03049.95620196  .00000327  00000-0  12136-3 0  7032
2 21577  98.1558  38.2713 0006684 135.8510 224.3211 14.38138227608098
S80/T 
1 22078U 92052C   03049.66010695 -.00000037  00000-0  10000-3 0  1881
2 22078  66.0849 121.4630 0016738 272.6192  87.2910 12.86682107494471
HEALTHSAT 1 
1 22827U 93061E   03049.60826361  .00000321  00000-0  14113-3 0  5229
2 22827  98.2737  80.4498 0008031 242.1951 117.8419 14.29679458490007
TUBSAT B 
1 22970U 94003B   03049.93994145  .00000051  00000-0  10000-3 0  8568
2 22970  82.5623 340.1030 0015102 266.0636  93.8758 13.16887929435902
CERISE 
1 23606U 95033B   03049.95264146  .00003176  00000-0  40996-3 0  1653
2 23606  98.3670  53.2883 0007643  23.1520 337.0034 14.81733691409257
UPM/LBSAT 
1 23607U 95033C   03049.94914938  .00001325  00000-0  21210-3 0  2264
2 23607  98.3876  44.2838 0007275  47.6389 312.5423 14.73534307408636
FAISAT 2V 
1 24954U 97052B   03049.93808661  .00000105  00000-0  85900-4 0  7051
2 24954  82.9189 244.9157 0039902 140.4566 219.9521 13.79480319272133
MUBLCOM 
1 25736U 99026B   03049.85512706  .00001946  00000-0  59015-3 0  8834
2 25736  97.7690 160.0320 0004080  15.9553 344.1763 14.43190227197340
RUBIN 3 
1 27561U 02054C   03049.76216761  .00000220  00000-0  64050-4 0   729
2 27561  98.2332 297.9750 0040221 180.9000 179.2130 14.52708708 11979
SIRIUS-1 
1 26390U 00035A   03049.53677583  .00000078  00000-0  10000-3 0  4543
2 26390  63.1056 275.7134 2681128 270.2747  59.5153  1.00280031  9674
SIRIUS-2 
1 26483U 00051A   03049.19763044  .00000034  00000-0  00000+0 0  3360
2 26483  63.4384 155.8691 2723885 267.9561  60.9991  1.00275195  9002
SIRIUS-3 
1 26626U 00077A   03048.87266470 -.00000081  00000-0  00000-0 0  3490
2 26626  63.7553  35.5425 2687810 270.1777  59.3741  1.00279436  8133
XM-2 
1 26724U 01012A   03050.47561111 -.00000030  00000-0  00000+0 0  4346
2 26724   0.0167 295.3675 0000177 243.6923  26.1222  1.00272620  7134
XM-1 
1 26761U 01018A   03047.39491353 -.00000206  00000-0  10000-3 0  2775
2 26761   0.0089 224.7269 0000426 204.5334 133.7618  1.00271212  6580
GPS BII-02 
1 20061U 89044A   03047.38400630  .00000027  00000-0  10000-3 0  7252
2 20061  53.4218 185.7993 0227361 254.3932 103.0402  2.00548880100304
GPS BII-05 
1 20361U 89097A   03049.92233573 -.00000037  00000-0  00000-0 0  4519
2 20361  55.8817 317.4329 0148431 191.9171 167.7864  2.00568129 87206
GPS BII-08 
1 20724U 90068A   03032.23182326 -.00000096  00000-0  00000-0 0  4534
2 20724  56.1867  12.2992 0187885 228.6174 130.0191  2.00343858 89984
GPS BII-09 
1 20830U 90088A   03048.96438702 -.00000028  00000-0  00000-0 0  4000
2 20830  55.7649 315.1267 0081800 115.0495 245.8710  2.00545345 90967
GPS BIIA-10 
1 20959U 90103A   03048.98080616 -.00000063  00000-0  00000-0 0  4738
2 20959  56.4036  14.1497 0163990 263.6168  94.5047  2.00434480 89558
GPS BIIA-11 
1 21552U 91047A   03049.77947367 -.00000030  00000-0  00000-0 0  5217
2 21552  55.9643 313.5293 0096944 274.3607  84.5896  2.00569491 85162
GPS BIIA-12 
1 21890U 92009A   03049.24623082  .00000016  00000-0  00000-0 0  5244
2 21890  53.9093 126.5254 0104678 259.5065  99.3701  2.00571817 80529
GPS BIIA-14 
1 22014U 92039A   03049.49193801 -.00000004  00000-0  00000-0 0  2812
2 22014  55.8901  71.2323 0140236  24.6072 336.1166  2.00559432 71299
GPS BIIA-15 
1 22108U 92058A   03049.41825417  .00000017  00000-0  00000-0 0  2952
2 22108  54.1650 128.0128 0170575 226.6977 131.9265  2.00558725 76477
GPS BIIA-16 
1 22231U 92079A   03048.78638119 -.00000000  00000-0  00000-0 0  3956
2 22231  55.7319  72.1377 0056831 263.1186  96.2992  2.00554524 75038
GPS BIIA-17 
1 22275U 92089A   03048.47008884 -.00000002  00000-0  00000-0 0  2457
2 22275  55.7146  69.4854 0083038 262.5922  96.5141  2.00569319 74444
GPS BIIA-18 
1 22446U 93007A   03029.41687147  .00000034  00000-0  00000-0 0  3305
2 22446  53.4127 187.3093 0158591  49.4997 311.8358  2.00572626 73047
GPS BIIA-19 
1 22581U 93017A   03049.49721142  .00000057  00000-0  14325-5 0    65
2 22581  53.8392 248.4338 0113529  52.3465 308.6994  2.00565143 72507
GPS BIIA-20 
1 22657U 93032A   03049.64018666  .00000056  00000-0  00000-0 0  3368
2 22657  53.8733 248.4542 0123926 250.8821 107.7916  2.00551125 67837
GPS BIIA-21 
1 22700U 93042A   03049.60290171  .00000017  00000-0  00000-0 0  8718
2 22700  54.2944 129.1617 0138836  51.8152 309.4852  2.00565350 70632
GPS BIIA-22 
1 22779U 93054A   03049.68667030  .00000038  00000-0  00000-0 0  1757
2 22779  53.5934 187.0315 0041809  38.4797 321.7756  2.00547639 69397
GPS BIIA-23 
1 22877U 93068A   03049.24146570 -.00000026  00000-0  00000-0 0  9985
2 22877  55.3765 312.2964 0063635 346.0612  13.8219  2.00578671 68274
GPS BIIA-24 
1 23027U 94016A   03048.81799395  .00000060  00000-0  00000-0 0   492
2 23027  53.7718 250.1483 0059879 236.7548 122.6809  2.00574541 65572
GPS BIIA-25 
1 23833U 96019A   03049.45805779  .00000056  00000-0  00000-0 0  3923
2 23833  53.3389 247.2810 0041261  27.9671 332.2739  2.00556959 50568
GPS BIIA-26 
1 23953U 96041A   03049.37718049 -.00000066  00000-0  00000-0 0  5952
2 23953  56.2131  11.2830 0053562   6.3769 353.6838  2.00562488 48350
GPS BIIA-27 
1 24320U 96056A   03048.73634039  .00000035  00000-0  00000-0 0  4158
2 24320  53.9915 189.2458 0065974  75.7688 284.9181  2.00565275 47000
GPS BIIR-02 
1 24876U 97035A   03048.83262989 -.00000001  00000-0  00000-0 0  3168
2 24876  55.9740  71.0411 0017515  17.0034 343.1218  2.00564257 40879
GPS BIIA-28 
1 25030U 97067A   03049.45179017  .00000019  00000-0  00000-0 0  2082
2 25030  55.0842 132.7112 0084452 129.9627 230.8311  2.00552083 38770
GPS BIIR-03 
1 25933U 99055A   03049.60049150 -.00000023  00000-0  00000+0 0  9110
2 25933  52.3579 306.3472 0015800 335.1412  24.8461  2.00565887 24702
GPS BIIR-04 
1 26360U 00025A   03048.70501007 -.00000067  00000-0  00000+0 0  9161
2 26360  55.2739  10.5969 0016476 103.4042 256.7765  2.00559302 20385
GPS BIIR-05 
1 26407U 00040A   03049.54223535  .00000042  00000-0  00000+0 0  9005
2 26407  54.9472 191.1109 0072461 219.9117 139.5117  2.00561861 19077
GPS BIIR-06 
1 26605U 00071A   03049.13769266 -.00000004  00000-0  00000+0 0  8356
2 26605  55.6649  70.6393 0018725 300.0084  59.8670  2.00565681 16669
GPS BIIR-07 
1 26690U 01004A   03049.01965302 -.00000066  00000-0  00000+0 0  7518
2 26690  55.2521  13.5672 0034401 186.7300 173.2192  2.00556078 15077
COSMOS 2362 
1 25594U 98077B   03049.65393375 -.00000051  00000-0  00000-0 0  2421
2 25594  65.1464   0.9409 0012171  45.3794 155.0665  2.13102428 32184
COSMOS 2363 
1 25595U 98077C   03049.84691789 -.00000051  00000-0  00000-0 0  1972
2 25595  65.1594   0.9291 0001771  88.6721 305.8874  2.13102728 32193
COSMOS 2374 
1 26564U 00063A   03049.44366141  .00000079  00000-0  00000-0 0  7294
2 26564  64.6002 241.5233 0005207  44.8848 342.0635  2.13102224 18271
COSMOS 2375 
1 26565U 00063B   03049.07145541  .00000081  00000-0  00000-0 0  7320
2 26565  64.6025 241.5268 0002124  24.1871 121.4812  2.13102342 18263
COSMOS 2376 
1 26566U 00063C   03049.66147247  .00000078  00000-0  10000-3 0  7365
2 26566  64.5829 241.4568 0039430 225.9838 276.6722  2.13099410 18276
COSMOS 2382 
1 26987U 01053A   03049.75445030 -.00000052  00000-0  00000-0 0  3762
2 26987  64.8454   1.4773 0004519 180.1944 235.7266  2.13103052  9460
COSMOS 2381 
1 26988U 01053B   03049.72735087 -.00000052  00000-0  00000-0 0  3753
2 26988  64.8492   1.4721 0023059 217.0048 267.8122  2.13102910  9471
COSMOS 2380 
1 26989U 01053C   03049.51292522 -.00000051  00000-0  00000-0 0  3796
2 26989  64.8412   1.5009 0007315  72.4682 112.8549  2.13102839  9469
